| time (UTC) | temp F | wind direction | speed MPH | gust MPH | rain 1hr in | rain 24hr in | rain mn in | humidity % | barometer mb |
| 20260831043028 | 70 | 236 | 0.0 | 3.0 | 0.00 | 0.00 | 0.00 | 54 | 1009.6 |
| 20260831041527 | 70 | 228 | 0.0 | 0.0 | 0.00 | 0.00 | 0.00 | 52 | 1009.4 |
| 20260831040030 | 71 | 26 | 0.0 | 0.0 | 0.00 | 0.00 | 0.00 | 50 | 1009.4 |
| 20260831034528 | 72 | 26 | 0.0 | 3.0 | 0.00 | 0.00 | 0.00 | 49 | 1009.1 |
| 20260831033033 | 73 | 8 | 0.0 | 1.0 | 0.00 | 0.00 | 0.00 | 47 | 1008.9 |
| 20260831031520 | 74 | 130 | 3.0 | 5.0 | 0.00 | 0.00 | 0.00 | 46 | 1008.7 |
| 20260831030017 | 75 | 1 | 0.0 | 3.0 | 0.00 | 0.00 | 0.00 | 45 | 1008.3 |
| 20260831024514 | 75 | 356 | 3.0 | 6.0 | 0.00 | 0.00 | 0.00 | 45 | 1007.8 |
| 20260831023012 | 75 | 258 | 1.0 | 7.0 | 0.00 | 0.00 | 0.00 | 43 | 1007.5 |
| 20260831021514 | 76 | 40 | 8.0 | 12.0 | 0.00 | 0.00 | 0.00 | 42 | 1006.6 |
| 20260831020008 | 76 | 27 | 7.0 | 12.0 | 0.00 | 0.00 | 0.00 | 42 | 1006.1 |
| 20260831014511 | 76 | 20 | 8.0 | 13.0 | 0.00 | 0.00 | 0.00 | 42 | 1005.9 |
| 20260831013008 | 76 | 22 | 6.0 | 13.0 | 0.00 | 0.00 | 0.00 | 42 | 1005.8 |
| 20260831011515 | 77 | 14 | 7.0 | 15.0 | 0.00 | 0.00 | 0.00 | 42 | 1005.7 |
| 20260831010006 | 77 | 34 | 12.0 | 19.0 | 0.00 | 0.00 | 0.00 | 41 | 1005.5 |
| 20260831004506 | 77 | 35 | 13.0 | 20.0 | 0.00 | 0.00 | 0.00 | 41 | 1005.5 |
| 20260831003008 | 80 | 34 | 12.0 | 25.0 | 0.00 | 0.00 | 0.00 | 36 | 1005.6 |
| 20260831001504 | 82 | 303 | 3.0 | 7.0 | 0.00 | 0.00 | 0.00 | 34 | 1004.9 |
| 20260831000004 | 83 | 277 | 5.0 | 9.0 | 0.00 | 0.00 | 0.00 | 33 | 1004.9 |
| 20260830234512 | 85 | 298 | 4.0 | 8.0 | 0.00 | 0.00 | 0.00 | 30 | 1004.7 |
| 20260830233005 | 85 | 314 | 4.0 | 8.0 | 0.00 | 0.00 | 0.00 | 29 | 1004.3 |
| 20260830231508 | 85 | 12 | 3.0 | 7.0 | 0.00 | 0.00 | 0.00 | 30 | 1004.4 |
| 20260830230002 | 85 | 312 | 7.0 | 10.0 | 0.00 | 0.00 | 0.00 | 29 | 1004.4 |
| 20260830224502 | 85 | 335 | 4.0 | 10.0 | 0.00 | 0.00 | 0.00 | 29 | 1004.4 |
| 20260830223005 | 86 | 323 | 5.0 | 10.0 | 0.00 | 0.00 | 0.00 | 28 | 1004.1 |
| 20260830221501 | 86 | 288 | 5.0 | 10.0 | 0.00 | 0.00 | 0.00 | 28 | 1004.1 |
| 20260830220103 | 86 | 328 | 2.0 | 6.0 | 0.00 | 0.00 | 0.00 | 28 | 1004.2 |
| 20260830214603 | 86 | 29 | 1.0 | 2.0 | 0.00 | 0.00 | 0.00 | 28 | 1004.1 |
| 20260830213058 | 86 | 6 | 1.0 | 4.0 | 0.00 | 0.00 | 0.00 | 28 | 1004.0 |
| 20260830211558 | 85 | 142 | 2.0 | 9.0 | 0.00 | 0.00 | 0.00 | 29 | 1003.9 |
| 20260830210058 | 86 | 157 | 4.0 | 9.0 | 0.00 | 0.00 | 0.00 | 30 | 1003.9 |
| 20260830204600 | 86 | 64 | 6.0 | 9.0 | 0.00 | 0.00 | 0.00 | 30 | 1003.7 |
| 20260830203056 | 86 | 116 | 4.0 | 11.0 | 0.00 | 0.00 | 0.00 | 30 | 1003.8 |
| 20260830201553 | 86 | 168 | 3.0 | 6.0 | 0.00 | 0.00 | 0.00 | 29 | 1004.2 |
| 20260830200051 | 85 | 253 | 3.0 | 6.0 | 0.00 | 0.00 | 0.00 | 30 | 1004.4 |
| 20260830194602 | 86 | 208 | 2.0 | 7.0 | 0.00 | 0.00 | 0.00 | 30 | 1004.5 |
| 20260830193049 | 85 | 209 | 2.0 | 7.0 | 0.00 | 0.00 | 0.00 | 30 | 1004.6 |
| 20260830191545 | 85 | 215 | 2.0 | 9.0 | 0.00 | 0.00 | 0.00 | 31 | 1004.8 |
| 20260830190042 | 84 | 193 | 3.0 | 8.0 | 0.00 | 0.00 | 0.00 | 30 | 1005.2 |
| 20260830184541 | 83 | 203 | 5.0 | 10.0 | 0.00 | 0.00 | 0.00 | 32 | 1005.4 |
| 20260830183040 | 83 | 188 | 5.0 | 11.0 | 0.00 | 0.00 | 0.00 | 31 | 1005.6 |
| 20260830181538 | 83 | 270 | 3.0 | 7.0 | 0.00 | 0.00 | 0.00 | 33 | 1005.8 |
| 20260830180036 | 82 | 239 | 3.0 | 10.0 | 0.00 | 0.00 | 0.00 | 34 | 1005.8 |
| 20260830174549 | 80 | 196 | 3.0 | 8.0 | 0.00 | 0.00 | 0.00 | 37 | 1005.8 |
| 20260830173034 | 78 | 235 | 1.0 | 6.0 | 0.00 | 0.00 | 0.00 | 39 | 1006.1 |
| 20260830171527 | 78 | 211 | 5.0 | 9.0 | 0.00 | 0.00 | 0.00 | 42 | 1006.4 |
| 20260830170027 | 78 | 236 | 6.0 | 10.0 | 0.00 | 0.00 | 0.00 | 42 | 1006.6 |
| 20260830164527 | 77 | 215 | 2.0 | 7.0 | 0.00 | 0.00 | 0.00 | 44 | 1006.5 |
| 20260830163028 | 74 | 244 | 1.0 | 8.0 | 0.00 | 0.00 | 0.00 | 48 | 1006.4 |
| 20260830161518 | 73 | 217 | 3.0 | 6.0 | 0.00 | 0.00 | 0.00 | 49 | 1006.3 |
| 20260830160016 | 72 | 226 | 2.0 | 5.0 | 0.00 | 0.00 | 0.00 | 51 | 1006.3 |
| 20260830154516 | 71 | 240 | 1.0 | 4.0 | 0.00 | 0.00 | 0.00 | 53 | 1006.4 |
| 20260830153029 | 69 | 278 | 2.0 | 8.0 | 0.00 | 0.00 | 0.00 | 54 | 1006.2 |
| 20260830151529 | 69 | 295 | 2.0 | 5.0 | 0.00 | 0.00 | 0.00 | 55 | 1006.1 |
| 20260830150013 | 68 | 230 | 3.0 | 6.0 | 0.00 | 0.00 | 0.00 | 56 | 1006.2 |
| 20260830144512 | 67 | 281 | 0.0 | 3.0 | 0.00 | 0.00 | 0.00 | 58 | 1006.1 |
| 20260830143012 | 67 | 294 | 1.0 | 4.0 | 0.00 | 0.00 | 0.00 | 58 | 1006.1 |
| 20260830141511 | 66 | 240 | 0.0 | 2.0 | 0.00 | 0.00 | 0.00 | 59 | 1006.4 |
| 20260830140012 | 66 | 315 | 0.0 | 3.0 | 0.00 | 0.00 | 0.00 | 59 | 1006.6 |
| 20260830134515 | 65 | 315 | 0.0 | 5.0 | 0.00 | 0.00 | 0.00 | 60 | 1006.6 |
| 20260830133007 | 65 | 339 | 0.0 | 2.0 | 0.00 | 0.00 | 0.00 | 61 | 1006.5 |
| 20260830131504 | 64 | 339 | 0.0 | 5.0 | 0.00 | 0.00 | 0.00 | 61 | 1006.4 |
| 20260830130004 | 64 | 339 | 2.0 | 3.0 | 0.00 | 0.00 | 0.00 | 62 | 1006.3 |
| 20260830124503 | 63 | 339 | 0.0 | 1.0 | 0.00 | 0.00 | 0.00 | 64 | 1006.2 |
| 20260830123002 | 63 | 339 | 0.0 | 1.0 | 0.00 | 0.00 | 0.00 | 64 | 1006.1 |
| 20260830121600 | 63 | 339 | 0.0 | 0.0 | 0.00 | 0.00 | 0.00 | 62 | 1006.0 |
| 20260830120107 | 64 | 339 | 0.0 | 2.0 | 0.00 | 0.00 | 0.00 | 62 | 1006.0 |
| 20260830114558 | 64 | 339 | 0.0 | 0.0 | 0.00 | 0.00 | 0.00 | 62 | 1005.9 |
| 20260830113057 | 64 | 339 | 0.0 | 0.0 | 0.00 | 0.00 | 0.00 | 61 | 1005.7 |
| 20260830111555 | 64 | 339 | 0.0 | 0.0 | 0.00 | 0.00 | 0.00 | 62 | 1005.6 |
| 20260830110055 | 65 | 339 | 0.0 | 0.0 | 0.00 | 0.00 | 0.00 | 60 | 1005.6 |
| 20260830104600 | 65 | 339 | 0.0 | 0.0 | 0.00 | 0.00 | 0.00 | 59 | 1005.5 |
| 20260830103049 | 65 | 339 | 0.0 | 0.0 | 0.00 | 0.00 | 0.00 | 58 | 1005.5 |
| 20260830101557 | 66 | 339 | 0.0 | 3.0 | 0.00 | 0.00 | 0.00 | 57 | 1005.3 |
| 20260830100046 | 66 | 345 | 3.0 | 5.0 | 0.00 | 0.00 | 0.00 | 57 | 1005.2 |
| 20260830094554 | 66 | 13 | 0.0 | 2.0 | 0.00 | 0.00 | 0.00 | 57 | 1005.0 |
| 20260830093043 | 67 | 15 | 0.0 | 3.0 | 0.00 | 0.00 | 0.00 | 56 | 1005.0 |
| 20260830091540 | 67 | 15 | 2.0 | 4.0 | 0.00 | 0.00 | 0.00 | 57 | 1004.9 |
| 20260830090038 | 68 | 13 | 2.0 | 3.0 | 0.00 | 0.00 | 0.00 | 56 | 1005.2 |
| 20260830084540 | 68 | 129 | 0.0 | 5.0 | 0.00 | 0.00 | 0.00 | 55 | 1005.4 |
| 20260830083038 | 69 | 205 | 0.0 | 0.0 | 0.00 | 0.00 | 0.00 | 53 | 1005.7 |
| 20260830081534 | 69 | 67 | 0.0 | 4.0 | 0.00 | 0.00 | 0.00 | 53 | 1005.5 |
| 20260830080032 | 69 | 62 | 3.0 | 7.0 | 0.00 | 0.00 | 0.00 | 52 | 1005.7 |
| 20260830074536 | 70 | 57 | 3.0 | 8.0 | 0.00 | 0.00 | 0.00 | 51 | 1006.0 |
| 20260830073030 | 70 | 40 | 9.0 | 12.0 | 0.00 | 0.00 | 0.00 | 51 | 1005.7 |
| 20260830071550 | 70 | 37 | 8.0 | 13.0 | 0.00 | 0.00 | 0.00 | 51 | 1005.7 |
| 20260830070026 | 70 | 22 | 7.0 | 13.0 | 0.00 | 0.00 | 0.00 | 51 | 1005.8 |
| 20260830064523 | 70 | 53 | 8.0 | 13.0 | 0.00 | 0.00 | 0.00 | 50 | 1005.8 |
| 20260830063019 | 72 | 53 | 7.0 | 15.0 | 0.00 | 0.00 | 0.00 | 47 | 1005.7 |
| 20260830061514 | 73 | 51 | 9.0 | 17.0 | 0.00 | 0.00 | 0.00 | 43 | 1005.9 |
| 20260830060011 | 74 | 296 | 0.0 | 0.0 | 0.00 | 0.00 | 0.00 | 42 | 1005.4 |
| 20260830054511 | 74 | 296 | 0.0 | 4.0 | 0.00 | 0.00 | 0.00 | 42 | 1005.3 |
| 20260830053010 | 74 | 343 | 0.0 | 3.0 | 0.00 | 0.00 | 0.00 | 42 | 1005.5 |
| 20260830051513 | 75 | 317 | 0.0 | 3.0 | 0.00 | 0.00 | 0.00 | 42 | 1005.6 |
| 20260830050009 | 76 | 317 | 0.0 | 3.0 | 0.00 | 0.00 | 0.00 | 40 | 1005.2 |
| 20260830044509 | 76 | 317 | 0.0 | 3.0 | 0.00 | 0.00 | 0.00 | 40 | 1005.1 |